Lapse_Rate
6.2 6.4 6.5 6.3 6.3 6.2 6.1 6.1 5.9 5.8 5.9 5.8 5.6 5.6 5.3 5.5 5.5 5.7 5.8 5.7 6.1 6.2 6.2 6.3 6.3 6.1 6.1 6.2 6.1 6.0 5.9 5.8 5.8 5.7 5.3 5.6 5.9 6.0
6.4 6.4 6.4 6.4 6.3 6.1 6.1 6.1 6.0 5.8 5.7 6.0 5.8 5.7 5.6 5.7 5.6 5.7 6.0 6.0 6.3 6.3 6.4 6.6 6.5 6.5 6.6 6.3 6.1 6.4 6.1 6.1 5.8 6.0 5.9 6.3 6.0 6.0
6.3 6.4 6.4 6.3 6.2 6.2 6.2 6.1 6.2 6.0 5.9 5.9 5.8 5.9 5.6 5.6 5.8 5.8 6.0 6.2 6.4 6.5 6.4 6.5 6.5 6.6 6.6 6.6 6.6 6.5 6.5 6.5 6.5 6.5 6.4 6.7 6.7 6.7
6.5 6.4 6.3 6.2 6.2 6.2 6.3 6.2 6.1 6.1 6.0 6.0 5.9 5.7 5.7 5.8 5.9 6.0 6.1 6.4 6.4 6.4 6.4 6.4 6.5 6.5 6.5 6.6 6.5 6.6 6.7 6.7 6.8 6.7 6.8 6.7 6.8 6.8
6.4 6.4 6.6 6.6 6.4 6.2 6.2 6.2 6.2 6.0 6.0 6.0 5.9 5.9 5.9 6.0 6.1 6.1 6.4 6.5 6.5 6.4 6.3 6.3 6.4 6.4 6.5 6.5 6.6 6.6 6.7 6.8 6.8 6.9 6.9 6.9 7.0 6.9
6.9 6.8 6.6 6.6 6.6 6.5 6.2 6.3 6.2 6.2 6.1 6.0 6.0 5.9 6.0 6.1 6.3 6.3 6.5 6.5 6.4 6.3 6.3 6.4 6.5 6.5 6.5 6.5 6.6 6.6 6.7 6.7 6.8 6.9 7.0 7.0 7.1 7.2
6.8 6.8 6.8 6.7 6.7 6.6 6.5 6.2 6.2 6.2 6.1 6.1 6.2 6.3 6.2 6.3 6.5 6.7 6.6 6.5 6.4 6.4 6.3 6.4 6.5 6.6 6.5 6.5 6.6 6.7 6.8 6.8 6.9 6.9 6.9 7.0 7.0 7.0
6.9 6.8 6.7 6.8 6.7 6.8 6.6 6.4 6.3 6.2 6.1 6.2 6.3 6.4 6.5 6.6 6.8 6.8 6.6 6.6 6.4 6.3 6.4 6.5 6.5 6.4 6.4 6.5 6.5 6.6 6.6 6.7 6.8 6.8 6.9 6.9 6.9 7.0
7.0 6.8 6.8 6.6 6.5 6.7 6.5 6.3 6.4 6.3 6.4 6.4 6.5 6.6 6.6 6.9 6.8 6.9 6.8 6.5 6.4 6.4 6.5 6.5 6.3 6.3 6.2 6.2 6.3 6.5 6.5 6.6 6.6 6.7 6.7 6.7 6.7 6.8
6.7 6.6 6.5 6.5 6.4 6.3 6.3 6.3 6.1 6.4 6.6 6.6 6.6 6.8 7.0 6.7 6.9 6.9 6.6 6.4 6.3 6.4 6.4 6.4 6.2 6.1 6.1 6.2 6.2 6.3 6.4 6.4 6.5 6.5 6.6 6.5 6.4 6.6
6.5 6.5 6.3 6.4 6.3 6.3 6.4 6.3 6.3 6.5 6.5 6.6 6.7 6.7 6.7 6.8 6.9 6.7 6.6 6.5 6.4 6.3 6.3 6.2 6.1 6.0 6.0 6.1 6.2 6.2 6.3 6.4 6.4 6.4 6.4 6.3 6.1 6.2
6.4 6.2 6.1 6.1 6.2 6.2 6.2 6.4 6.4 6.4 6.5 6.5 6.7 6.6 6.7 6.9 6.8 6.8 6.6 6.4 6.3 6.3 6.2 6.1 6.1 6.1 6.0 6.0 6.0 6.1 6.2 6.3 6.3 6.3 6.3 6.2 6.1 6.0
6.4 6.1 5.8 5.9 5.9 6.1 6.2 6.2 6.3 6.3 6.6 6.5 6.4 6.6 6.8 6.8 6.6 6.5 6.4 6.3 6.2 6.1 6.1 6.1 6.1 6.1 6.1 6.1 6.1 6.0 6.1 6.2 6.2 6.2 6.2 6.2 6.2 6.1
5.9 5.8 5.5 5.6 6.0 6.0 6.1 6.2 6.3 6.5 6.4 6.2 6.5 6.8 6.7 6.5 6.5 6.4 6.2 6.2 6.2 6.1 6.1 6.0 6.0 6.1 6.1 6.1 6.1 6.0 6.1 6.2 6.2 6.1 6.1 6.1 6.2 6.0
5.6 5.5 4.9 4.7 5.7 5.9 6.1 6.0 6.2 6.1 6.1 6.3 6.6 6.6 6.6 6.6 6.4 6.3 6.2 6.2 6.1 6.2 6.1 5.9 5.9 6.0 6.0 5.9 5.9 5.9 6.0 6.2 6.1 6.0 6.0 6.0 6.0 5.9
5.7 5.6 4.7 4.6 4.9 5.3 5.8 6.0 5.9 5.9 5.9 6.2 6.3 6.3 6.4 6.3 6.3 6.2 6.2 6.1 6.0 6.0 6.0 5.8 5.7 5.8 5.9 5.9 5.8 5.6 5.9 5.9 6.0 6.1 5.9 5.8 5.9 5.8
5.0 5.1 4.7 5.3 5.4 5.8 5.8 5.8 5.8 5.9 5.9 6.0 6.2 6.3 6.3 6.2 6.1 6.1 6.0 5.9 5.9 5.8 5.6 5.5 5.3 5.4 5.7 5.7 5.7 5.7 5.9 5.8 5.8 5.8 5.6 5.6 5.6 5.7
5.2 5.1 5.4 5.5 5.7 5.8 5.8 5.9 5.9 5.9 5.8 6.1 6.2 6.2 6.1 6.0 6.0 6.0 5.7 5.7 5.6 5.5 5.4 5.1 5.0 5.2 5.4 5.4 5.6 5.6 5.7 5.7 5.8 5.7 5.7 5.6 5.5 5.8
5.6 5.6 5.7 5.7 5.7 5.8 5.8 5.8 5.8 5.8 5.9 6.0 5.9 5.9 5.9 5.8 5.8 5.7 5.6 5.5 5.3 5.0 4.9 4.8 4.6 5.0 5.3 5.2 5.5 5.4 5.4 5.7 5.7 5.6 5.6 5.7 5.7 5.7
5.6 5.4 5.6 5.7 5.7 5.8 5.8 5.8 5.7 5.7 5.8 5.7 5.7 5.7 5.7 5.6 5.6 5.5 5.4 5.3 4.9 4.6 4.7 4.5 4.5 5.0 5.1 5.2 5.4 5.0 5.1 5.5 5.6 5.6 5.5 5.7 5.8 5.8
5.6 5.5 5.5 5.5 5.5 5.6 5.6 5.7 5.7 5.7 5.8 5.8 5.8 5.8 5.7 5.6 5.5 5.4 4.9 4.8 4.5 4.5 4.5 4.2 4.4 4.9 5.1 5.2 5.3 5.0 5.1 5.4 5.6 5.6 5.6 5.8 6.0 6.1
5.6 5.5 5.3 5.2 5.4 5.4 5.5 5.5 5.6 5.7 5.5 5.3 5.2 5.4 5.3 5.2 5.1 4.8 4.9 4.7 4.6 4.8 4.5 4.4 4.5 4.9 5.2 5.2 5.2 5.2 5.2 5.3 5.4 5.5 5.6 5.8 6.1 6.2
5.9 5.9 5.9 5.9 5.9 5.8 5.8 5.8 5.7 5.6 5.5 5.5 5.5 5.4 5.2 5.4 5.2 5.1 5.1 5.0 4.9 4.9 4.9 4.8 4.7 4.7 4.8 5.1 5.2 5.3 5.4 5.3 5.5 5.5 5.6 5.8 6.1 6.4
Wind_Speed
4 3 2 2 2 2 3 3 3 4 4 4 2 4 5 6 4 4 7 9 9 10 11 12 13 17 18 21 24 27 27 24 21 17 15 12 9 6
2 3 2 1 2 2 1 1 2 3 3 2 1 3 6 6 3 2 4 5 8 9 9 11 12 14 17 19 19 18 18 17 14 12 11 9 6 3
3 4 4 3 3 2 1 0 1 1 2 2 2 2 2 3 4 3 4 5 7 8 8 11 10 11 12 13 13 14 14 13 12 9 7 6 4 4
3 2 2 1 0 1 0 1 1 0 2 3 2 2 2 2 3 3 3 5 6 7 9 10 11 10 10 10 11 10 11 10 9 8 8 6 7 6
2 2 2 1 0 1 1 2 2 1 2 3 3 1 2 1 2 2 2 4 6 7 8 9 9 9 9 10 10 9 8 8 9 10 9 7 7 5
1 1 1 3 3 2 2 2 2 2 1 3 3 2 2 1 2 2 1 3 2 6 6 8 7 7 6 6 6 6 6 6 5 5 5 5 5 4
2 2 1 2 3 4 3 3 4 3 2 2 3 2 2 1 3 2 2 1 2 3 2 4 4 4 6 5 4 4 3 2 1 1 1 2 2 2
3 3 3 5 3 4 3 5 5 5 4 3 2 3 3 3 2 3 3 2 1 2 1 1 3 1 3 2 2 3 2 1 1 1 1 0 1 1
3 4 3 3 4 5 6 9 6 4 4 5 4 4 4 5 4 3 2 2 2 0 1 1 3 1 3 2 2 4 2 1 0 1 3 3 2 0
3 3 3 3 2 4 4 5 4 4 3 2 4 5 3 7 4 4 4 4 3 2 1 2 1 0 4 3 3 2 2 2 2 3 3 2 2 2
2 2 3 3 5 7 5 5 3 3 8 10 11 11 11 10 10 5 2 3 1 1 2 2 0 1 2 2 3 2 2 2 1 1 1 1 1 2
1 2 7 5 7 7 5 5 4 3 4 4 4 7 7 8 7 3 4 3 2 1 2 2 0 1 2 1 2 3 3 4 3 2 2 2 2 3
3 3 2 9 7 7 8 5 5 5 6 4 3 3 3 4 4 6 4 3 3 1 3 3 1 1 2 1 2 2 3 4 3 3 3 3 4 6
4 3 4 9 8 8 6 8 9 8 3 3 3 2 2 2 1 5 6 6 4 3 7 5 3 3 2 1 1 2 2 5 4 6 5 4 7 8
3 6 10 10 9 6 8 8 8 4 3 2 2 2 2 2 7 4 4 4 3 4 6 5 4 3 3 2 2 1 2 2 9 3 2 0 6 9
5 4 7 8 9 6 5 6 3 4 3 3 2 2 2 2 2 2 2 1 2 2 6 10 10 7 2 3 3 3 2 2 1 2 3 6 11 11
5 2 2 2 3 3 3 3 3 3 3 3 2 3 2 3 2 2 2 2 2 2 2 2 8 12 9 4 2 4 3 4 5 2 1 3 4 11
5 3 4 4 5 4 4 4 3 7 4 4 3 3 4 4 4 2 2 3 3 3 2 2 0 1 1 7 16 4 3 6 6 2 2 2 2 6
6 4 5 5 5 5 4 4 5 5 4 5 5 5 4 4 7 4 4 4 5 3 4 3 2 3 2 4 2 10 5 2 2 2 3 3 5 4
4 6 7 6 6 6 5 5 5 4 5 5 6 6 6 6 5 6 6 6 6 4 3 2 3 4 5 4 3 3 10 3 3 3 3 2 10 19
7 6 7 7 7 7 6 6 6 6 5 5 6 6 7 6 7 7 7 12 11 4 7 6 8 16 4 3 3 2 2 16 13 4 2 2 4 3
7 8 7 6 7 7 7 6 6 7 6 7 7 7 7 7 7 8 7 7 7 7 7 3 3 3 3 6 8 6 3 3 14 17 17 14 3 3
8 8 7 7 7 7 7 7 8 7 8 8 7 8 7 7 8 8 7 7 6 6 5 3 2 2 3 5 9 7 8 6 3 4 7 18 22 25
Wind_Direction
260 256 260 273 257 253 251 173 219 204 186 165 139 178 133 87 48 33 40 26 44 52 52 47 40 38 33 35 55 72 81 93 102 110 108 107 104 100
261 259 264 260 258 251 234 222 171 202 171 129 152 152 146 126 109 72 52 42 42 44 45 48 45 48 47 41 49 62 71 81 92 97 97 99 100 104
259 248 260 251 237 229 183 75 210 161 128 94 107 123 107 133 121 95 83 63 54 65 57 48 47 51 55 54 52 56 69 74 76 84 97 97 101 93
257 258 224 283 218 358 118 143 197 48 124 128 128 143 115 135 112 104 79 64 62 60 59 54 50 56 55 65 63 64 69 74 81 86 89 98 101 94
208 233 242 196 215 300 252 172 179 177 119 128 132 126 115 136 103 87 96 69 51 56 57 56 61 70 68 70 72 67 68 82 83 83 83 83 76 67
166 159 253 202 178 199 240 200 161 139 113 124 106 117 114 149 114 139 100 26 39 27 49 51 57 65 78 83 68 61 59 64 77 83 77 68 54 33
112 101 103 134 151 188 172 208 162 142 139 118 115 116 133 132 166 164 122 131 31 28 26 32 31 54 47 61 55 38 38 31 39 46 40 50 34 20
153 106 90 75 104 136 164 195 186 156 157 125 150 157 168 163 139 156 137 138 162 23 77 13 26 44 16 28 33 40 29 32 72 106 104 91 201 132
166 153 110 80 73 66 71 55 81 104 169 157 163 182 154 172 146 131 168 129 146 288 105 125 5 98 2 345 16 349 303 300 103 81 96 54 45 154
177 176 155 149 137 122 104 83 55 47 47 97 144 150 136 147 154 161 152 107 74 55 91 141 352 279 338 351 354 12 50 191 120 101 121 62 36 31
202 199 188 189 220 172 139 122 100 55 91 103 113 122 131 136 141 113 102 107 112 222 10 111 1 347 349 329 354 50 103 95 99 37 352 313 318 270
228 244 206 198 218 195 161 158 163 164 114 72 66 82 96 132 145 139 136 141 136 26 242 113 88 109 4 311 330 23 21 31 30 38 358 310 276 307
204 225 245 212 200 207 190 177 194 161 172 143 128 112 97 103 100 111 148 137 137 199 198 105 141 33 95 279 310 5 88 17 349 332 314 295 290 293
212 211 221 231 211 208 195 213 208 163 141 148 148 157 154 149 166 146 124 113 116 155 156 138 151 140 131 341 250 340 292 332 148 338 310 284 295 284
212 218 219 222 216 220 213 217 176 150 157 152 176 188 182 168 154 125 111 122 135 169 183 188 151 154 143 191 216 246 324 297 303 250 173 192 290 278
214 234 214 202 206 204 224 224 164 171 177 181 184 165 115 142 173 151 138 123 83 299 235 226 218 175 181 210 191 244 213 260 293 279 272 285 289 267
180 215 180 188 205 214 218 224 205 198 187 177 173 172 185 171 188 156 145 145 162 202 279 305 231 227 219 182 226 218 210 240 256 257 284 287 246 260
190 198 208 208 215 211 212 216 204 219 204 190 187 192 192 197 201 182 149 172 193 202 211 236 256 33 316 253 227 236 236 256 264 248 235 253 250 242
216 207 221 216 220 214 211 204 220 214 187 201 202 204 195 198 216 204 200 204 220 199 211 194 163 152 220 249 282 232 206 225 203 235 230 232 274 266
202 210 221 219 218 217 213 214 219 202 205 209 208 207 203 202 210 216 206 211 217 201 208 199 195 191 203 207 206 255 206 173 184 234 250 252 266 284
226 224 218 218 218 218 219 216 212 213 205 202 209 207 205 202 217 218 217 220 220 204 226 220 222 222 181 104 255 234 242 238 222 197 213 221 274 267
229 234 231 221 219 218 220 218 217 222 216 210 214 208 206 205 216 218 215 213 222 217 229 215 165 129 147 211 246 248 241 223 233 249 250 229 188 271
230 233 235 234 226 225 222 219 219 223 218 214 210 211 205 210 215 218 216 214 214 212 208 200 178 156 200 203 232 250 252 247 210 235 247 250 255 259